Theta_e
320 319 320 320 320 320 321 320 320 320 320 320 320 320 321 321 322 322 323 323 324 325 325 326 327 327 327 327 328 327 325 320 320 315 315 316 327 332 335 336 337 336 334 319 311 308 303 302 304 304 306 305 305 305 306 307 307 299 295 290 289 288 291 294 293 292 293 294 294 295 295 296 295 298 299 300 298 298 298 300 302 307 312 319 320 322 323 324
320 319 320 319 320 320 319 319 319 320 320 320 319 319 320 321 321 321 322 323 323 324 325 326 326 326 327 327 327 325 320 318 315 315 311 326 332 334 335 336 335 333 329 317 309 304 302 301 301 303 304 302 308 305 309 305 305 296 292 290 288 291 294 295 295 296 296 294 295 296 294 296 296 296 298 296 295 297 297 299 300 301 307 318 319 320 321 322
320 319 319 319 319 319 319 318 319 319 319 318 319 319 319 320 320 321 322 322 323 324 324 325 326 326 326 326 326 325 322 316 313 308 314 331 334 334 336 335 334 333 317 314 312 307 303 302 302 301 302 300 300 301 304 302 302 299 294 291 291 295 295 296 296 297 297 296 295 295 295 297 297 297 299 296 293 295 295 295 298 299 301 312 316 318 319 320
319 319 318 318 319 319 318 318 318 318 318 318 318 318 318 319 320 321 321 322 322 323 324 325 325 326 325 325 326 320 319 311 308 311 321 331 331 334 333 331 333 328 322 321 316 315 307 304 302 301 303 299 298 301 300 303 296 298 292 291 293 295 295 296 296 295 297 298 296 295 296 295 296 298 297 294 294 293 294 297 300 299 300 308 315 316 317 318
319 319 318 318 318 318 318 317 317 318 317 318 318 317 318 318 319 320 321 321 322 323 324 324 325 325 325 325 324 321 312 296 299 316 319 327 330 334 331 333 332 321 316 313 308 306 305 302 301 302 301 295 299 297 295 300 302 295 292 294 296 295 293 296 296 296 295 295 297 295 295 296 299 298 297 295 292 289 294 298 299 302 303 306 313 314 315 316
319 318 318 317 317 318 317 316 316 317 317 317 317 317 317 318 319 319 320 320 321 322 323 324 325 324 325 324 317 320 304 287 307 318 328 332 333 332 330 331 334 321 311 308 306 305 304 302 302 299 299 295 295 292 295 297 301 292 295 295 294 296 295 297 297 295 295 296 295 294 297 298 297 297 297 295 294 295 300 301 301 301 303 307 313 314 313 315
319 318 317 317 317 317 316 316 316 316 316 317 317 317 317 318 318 319 319 320 320 321 323 324 324 325 323 324 318 317 303 304 311 320 329 333 333 334 332 330 331 315 310 306 306 305 303 301 300 298 296 296 294 294 298 297 297 293 292 295 296 296 296 296 297 294 294 296 297 297 298 297 296 296 297 297 296 296 299 301 304 304 304 307 311 314 313 316
320 319 318 318 317 316 316 316 316 315 316 316 316 316 317 317 318 318 319 319 320 321 322 323 324 324 323 321 307 304 303 301 314 319 325 327 321 316 325 321 316 314 311 307 305 302 302 300 299 299 298 293 294 296 298 296 296 294 294 296 296 296 297 296 294 295 295 297 297 295 297 296 294 295 296 296 297 297 300 301 305 305 305 306 310 311 311 314
320 319 318 318 318 318 315 315 315 315 316 316 316 316 316 317 317 318 318 319 320 320 322 323 323 323 321 314 309 301 298 313 318 318 317 314 310 309 315 313 314 311 307 306 306 305 304 301 300 300 295 297 298 296 297 293 292 297 295 295 297 296 297 295 296 296 296 298 296 297 296 295 297 298 297 298 297 297 299 299 303 304 304 304 307 310 309 311
319 319 318 317 317 315 315 315 314 316 316 315 315 316 316 317 317 318 318 319 319 320 321 323 323 322 317 311 302 295 306 314 316 315 313 311 310 311 311 312 311 310 309 306 306 306 304 303 304 305 302 298 298 297 297 294 292 297 295 296 296 296 296 297 296 297 298 298 297 295 295 295 297 298 292 294 298 298 299 299 299 303 304 304 305 307 307 308
320 319 317 316 315 315 314 314 314 315 315 314 314 315 316 317 317 318 318 319 319 319 322 322 323 321 318 313 296 292 315 316 317 311 311 311 310 309 311 311 311 311 307 308 307 307 307 306 306 306 302 298 298 296 296 298 298 297 297 295 295 296 297 297 295 297 296 297 296 296 295 296 296 296 295 298 299 299 299 299 299 298 299 301 304 306 306 307
319 318 317 316 315 315 314 314 314 314 314 314 314 315 316 316 317 318 318 319 319 320 321 322 322 317 312 305 299 300 313 314 312 309 311 314 311 309 312 311 312 313 308 306 309 310 309 308 308 302 296 302 295 297 298 299 299 296 296 293 296 296 296 297 295 296 296 296 298 297 293 293 294 293 299 298 299 298 298 299 299 298 298 298 298 302 304 306
319 318 317 316 315 315 314 314 314 314 314 313 314 315 316 316 316 318 318 319 319 320 321 322 320 318 308 296 298 314 315 313 310 310 311 312 311 310 312 313 314 310 309 306 306 308 309 308 305 301 304 297 296 294 298 300 299 299 296 293 294 293 291 296 296 296 296 297 297 296 285 286 290 296 299 298 300 299 297 297 297 299 299 299 298 298 300 303
318 318 317 316 315 315 314 314 313 313 314 313 315 315 316 316 316 317 319 318 321 321 322 323 315 313 305 294 310 315 313 314 313 311 312 312 312 312 310 311 310 309 311 307 309 306 310 308 303 303 304 298 297 304 299 298 296 293 295 292 288 287 288 294 296 295 294 297 297 294 286 286 292 294 296 297 299 299 298 296 296 298 299 299 299 298 299 300
318 318 317 316 315 315 314 313 313 313 313 314 314 315 315 316 316 317 319 320 321 322 323 322 314 305 295 299 310 315 328 318 310 311 313 312 309 308 309 309 308 308 307 308 309 310 308 311 304 298 298 301 301 297 293 292 293 293 289 285 287 287 287 294 297 295 293 297 297 293 286 289 293 294 296 299 298 298 296 296 296 297 298 299 299 299 300 301
318 317 317 316 316 315 313 312 312 313 314 314 314 315 315 316 317 318 319 319 321 322 318 317 318 305 295 296 312 324 316 308 309 314 311 314 313 308 308 308 310 308 308 307 308 309 306 305 300 298 298 300 296 289 288 288 289 290 286 284 287 285 289 293 297 296 295 296 297 294 286 288 292 296 296 297 299 297 296 296 296 297 298 299 299 300 301 301
318 317 317 316 316 314 313 312 311 312 313 314 314 315 316 316 318 319 320 321 320 320 315 311 312 308 296 303 308 308 305 311 312 313 312 311 309 309 309 309 307 306 307 307 307 305 304 301 299 299 298 292 291 291 287 283 283 287 288 286 287 287 288 287 291 294 296 294 292 294 291 289 291 292 292 296 297 296 295 297 297 298 298 298 299 299 300 301
318 317 317 317 316 314 313 312 312 313 313 313 314 315 313 317 320 318 319 318 316 317 315 315 304 297 293 301 300 301 309 308 311 310 310 309 308 310 308 305 306 304 305 301 302 301 301 297 296 291 292 293 293 287 284 281 286 283 287 287 286 288 289 287 289 292 296 294 292 291 290 291 294 295 295 295 296 296 296 297 297 298 298 298 297 298 299 301
318 317 317 315 315 314 313 312 312 313 313 314 315 316 318 319 315 309 312 314 302 294 293 295 293 287 288 295 303 308 311 310 311 310 307 309 311 309 307 307 305 302 299 295 297 299 298 294 294 290 287 289 291 290 287 289 289 289 288 285 285 288 287 287 289 295 294 292 290 289 289 290 292 293 295 295 296 296 297 296 296 297 297 298 298 297 298 300
318 317 316 315 315 314 313 312 313 314 315 312 308 308 305 299 300 300 305 306 300 294 295 297 299 301 304 305 306 309 312 312 305 307 310 309 309 306 304 305 303 302 296 293 298 297 298 287 287 287 288 290 291 292 292 292 290 290 289 287 287 287 288 291 293 294 293 291 289 290 290 290 291 292 294 295 294 293 294 295 297 297 297 297 297 297 297 298
317 317 316 315 315 314 313 312 313 314 315 309 310 307 293 292 289 289 298 299 298 303 300 302 301 299 303 306 306 305 303 303 305 305 310 312 308 303 301 301 295 296 295 296 296 298 294 289 289 291 293 293 293 292 290 290 290 290 288 288 286 288 289 290 293 294 293 292 286 287 288 290 291 293 293 294 293 295 296 296 295 296 296 297 296 297 297 299
317 316 316 315 315 314 313 312 313 314 315 314 311 308 309 298 302 301 294 289 296 303 303 303 302 303 306 305 307 308 306 300 302 305 310 309 305 299 299 297 294 292 295 295 293 290 288 287 290 294 293 292 291 291 290 291 290 288 287 286 286 286 289 293 293 294 293 291 288 287 288 291 293 294 294 293 295 297 297 297 297 297 297 297 296 297 298 297
317 316 315 315 315 315 313 313 313 314 312 309 306 308 306 311 309 306 304 289 292 301 302 300 301 302 303 304 308 309 299 296 297 303 305 307 302 300 297 295 293 292 296 294 290 287 286 287 293 294 292 292 291 290 290 289 289 287 285 283 284 285 290 286 289 292 294 291 289 287 289 292 294 295 295 297 296 296 296 296 297 298 298 299 298 297 298 298
316 316 315 314 314 315 314 314 314 312 309 308 305 306 311 311 309 309 302 289 289 298 300 301 300 302 301 301 306 306 297 298 300 300 306 304 299 299 297 294 293 293 292 292 291 289 286 291 294 294 293 292 291 290 288 285 287 287 287 284 285 290 291 288 289 292 292 290 292 290 288 287 289 291 292 294 296 296 297 296 297 298 298 299 298 298 297 299
316 315 315 315 314 315 315 314 308 306 309 306 305 310 311 311 310 310 298 291 291 297 303 300 302 303 303 309 310 303 300 300 303 304 305 304 299 298 297 297 293 290 292 292 292 290 289 294 296 294 292 292 290 289 289 287 286 285 288 290 289 289 291 292 290 288 283 280 289 289 281 278 282 289 290 294 293 293 293 295 296 298 298 296 297 299 298 299
316 316 315 315 315 314 315 306 305 308 304 303 305 309 311 308 309 304 297 285 283 291 294 291 301 297 309 302 304 303 300 297 302 304 305 306 306 300 298 295 294 289 292 291 290 289 289 295 295 293 291 290 289 288 289 288 283 284 286 294 291 290 290 289 288 285 278 279 286 288 281 278 282 287 288 291 291 294 293 293 296 297 297 295 298 299 299 300
316 316 316 315 315 315 306 299 307 307 301 302 309 310 309 309 307 305 291 278 278 290 288 297 294 295 304 301 303 298 286 288 303 304 303 307 302 305 295 291 293 294 296 292 289 288 292 294 292 292 291 290 288 288 291 290 285 284 290 293 291 291 291 291 288 286 281 283 287 290 285 281 281 285 290 292 292 292 293 295 296 296 296 297 297 298 298 300
317 317 316 316 315 314 305 307 306 303 303 306 307 312 309 308 308 300 287 274 272 292 290 289 296 304 304 301 302 291 291 300 295 299 303 304 304 298 293 290 292 292 294 290 284 289 294 291 291 292 289 287 288 288 293 291 286 287 294 292 291 292 291 288 287 285 285 283 282 281 288 283 279 283 287 289 290 291 293 295 295 294 295 296 296 297 297 299
317 317 316 316 316 315 312 309 306 302 308 308 310 310 312 305 300 288 281 273 290 289 302 292 304 302 300 301 295 295 295 297 291 298 303 303 304 298 292 292 292 291 293 292 287 291 295 292 293 293 290 288 290 292 290 292 291 293 292 292 292 290 290 287 282 287 281 278 278 284 285 278 283 283 286 287 287 289 293 295 295 295 294 294 295 296 299 298
317 317 316 316 315 313 311 312 307 308 308 308 309 309 308 302 291 286 277 270 293 285 294 295 295 292 296 295 292 295 293 295 297 299 300 297 299 299 298 299 295 291 291 293 290 292 294 296 296 294 291 291 290 292 292 293 293 293 291 290 288 286 284 282 281 279 278 276 276 286 287 283 279 283 284 287 288 291 293 292 292 292 293 296 299 298 298 299
317 317 316 316 309 310 310 304 307 309 309 308 309 307 301 294 283 278 271 280 293 291 293 291 291 297 293 292 289 292 294 294 296 296 293 298 296 296 296 292 294 287 285 286 287 289 293 292 294 293 295 293 292 291 292 292 293 293 289 283 281 280 279 278 279 277 276 274 276 283 288 284 277 278 285 288 288 290 292 292 295 291 293 297 300 298 298 297
316 317 317 314 312 312 305 302 309 309 309 308 307 301 293 282 284 277 275 292 285 287 287 286 290 292 292 293 290 290 291 294 295 294 293 290 290 291 291 287 290 284 283 283 284 287 287 289 291 294 295 295 290 290 290 287 288 289 286 284 278 275 276 274 276 276 274 275 278 280 284 283 283 284 288 288 290 290 291 294 292 291 294 296 299 297 297 295
316 316 317 314 312 308 308 312 311 310 308 307 304 295 286 280 274 280 282 285 281 290 288 293 292 292 291 290 288 290 292 290 293 292 293 291 291 290 291 290 291 287 281 283 284 284 283 284 291 291 292 294 292 289 285 285 287 287 286 280 277 273 273 270 269 273 273 277 281 284 285 283 282 285 292 293 294 293 291 291 293 296 296 293 297 296 295 295
317 317 313 313 311 310 310 310 310 309 306 304 297 290 285 277 276 291 285 284 287 293 292 290 292 291 291 288 288 292 288 290 292 291 292 290 288 286 289 291 291 288 282 282 285 283 278 279 286 289 287 292 293 292 291 286 288 290 286 286 282 276 273 268 272 273 275 275 280 281 280 280 279 285 287 292 292 292 292 293 293 295 294 294 294 294 294 294
316 316 315 313 312 311 311 312 311 309 305 302 292 287 280 278 282 283 283 285 290 293 290 293 290 289 287 288 289 292 289 286 292 291 289 289 286 285 286 289 291 288 286 285 283 280 284 281 284 293 291 294 293 293 291 288 287 286 287 286 280 281 278 274 271 272 273 274 275 277 280 279 284 286 290 291 290 292 294 296 295 295 296 295 295 295 296 296
314 313 315 311 310 312 313 313 310 309 304 297 287 282 280 283 280 286 284 293 293 289 289 291 288 286 283 285 289 290 291 289 290 289 287 288 288 288 289 290 291 292 288 284 283 281 282 280 288 291 292 293 292 292 294 289 282 283 288 284 283 285 284 278 276 280 275 273 276 275 281 283 283 288 292 294 291 292 291 292 293 294 296 294 294 295 296 296
310 313 307 310 310 313 313 313 311 308 304 295 286 281 286 286 289 289 296 292 293 293 289 285 285 284 283 284 285 287 289 291 289 287 284 288 287 289 288 290 293 293 293 290 284 286 283 279 287 288 288 291 291 292 293 291 289 287 282 285 288 290 287 281 275 273 274 273 275 276 279 279 277 280 285 288 290 292 291 293 295 294 294 293 294 294 295 295
309 309 309 309 312 314 314 312 310 306 300 293 285 289 289 286 292 292 296 295 293 293 288 287 286 288 284 286 285 287 289 289 287 287 283 289 285 293 291 291 294 294 295 292 288 286 288 281 285 286 288 289 292 293 293 292 292 286 283 289 289 281 280 281 275 273 270 268 272 274 277 280 281 284 285 287 288 290 292 292 292 292 292 294 295 295 293 294
308 306 301 309 314 314 313 312 308 302 296 289 286 286 290 290 294 292 296 297 296 292 289 288 286 288 288 286 286 288 290 285 288 286 285 286 284 290 293 294 291 295 295 293 289 286 288 282 282 286 288 289 289 289 285 286 292 292 291 291 288 282 276 279 280 274 275 270 269 274 276 280 283 283 285 289 290 291 292 290 292 293 293 295 295 295 295 295
304 300 298 311 314 314 313 310 303 298 293 286 287 286 291 289 292 295 297 298 293 292 289 289 289 287 289 288 290 288 288 287 288 286 286 287 288 291 293 296 293 293 295 295 291 291 286 284 277 283 286 288 284 286 285 288 287 286 286 284 287 285 286 281 283 278 275 267 268 269 274 278 281 287 288 290 291 291 292 293 293 293 294 294 295 295 295 296
305 298 299 312 313 314 311 305 297 292 290 292 292 289 291 290 293 295 296 299 297 298 292 291 291 289 289 289 288 290 288 287 289 287 287 287 289 284 293 295 295 292 293 293 292 289 285 283 280 283 283 283 284 287 290 291 294 291 290 287 290 285 282 276 277 281 277 278 274 271 276 283 285 290 291 290 291 291 292 292 293 292 293 294 293 293 296 297
300 292 298 312 313 312 305 294 289 291 290 288 288 291 290 300 292 294 294 296 297 294 298 294 293 291 291 291 291 290 288 286 288 288 287 287 291 289 291 297 297 296 294 289 291 292 289 282 282 279 283 287 286 290 290 291 292 289 289 286 290 286 284 278 275 275 279 279 275 275 273 283 290 290 292 291 291 291 291 292 292 293 293 293 295 296 297 298
297 295 307 311 312 309 301 289 287 288 288 290 293 292 295 294 295 296 293 296 294 295 294 293 292 291 291 292 290 290 291 287 289 288 289 289 290 293 293 297 298 296 296 290 293 292 293 281 279 277 284 287 289 289 289 289 292 290 289 285 286 286 284 284 278 278 281 275 279 278 274 283 290 290 290 289 288 289 291 291 295 295 294 294 295 296 297 298
297 297 301 309 312 308 297 284 284 286 288 290 290 291 293 293 293 293 294 295 294 293 293 292 292 294 290 292 291 289 292 284 289 290 288 289 287 294 295 296 298 294 295 292 292 293 286 282 284 276 274 279 280 283 287 286 286 280 282 287 288 288 287 284 282 278 280 280 282 279 276 283 290 289 289 287 289 291 291 291 292 295 294 295 296 296 295 294
298 300 300 303 308 305 294 292 287 286 287 286 287 288 289 291 291 293 292 292 294 292 293 291 293 292 291 293 292 292 293 292 285 292 292 289 291 294 294 297 299 296 297 296 297 297 289 284 284 277 276 274 271 275 277 279 286 284 279 285 289 288 287 286 283 281 280 283 281 279 282 287 290 288 292 288 285 292 291 290 292 293 294 296 297 296 295 294
294 286 295 297 301 300 299 298 293 289 287 286 285 288 291 288 291 292 293 292 295 292 293 292 293 292 292 292 289 289 290 293 290 285 290 287 289 291 294 297 298 296 297 297 295 295 283 284 287 285 283 281 282 283 284 286 283 283 285 287 288 289 290 289 285 282 282 283 276 283 286 287 288 289 289 291 285 289 291 289 293 295 294 292 291 293 294 295
297 290 290 286 295 295 294 295 292 292 287 290 285 289 286 289 291 290 294 290 294 294 293 293 292 291 289 291 290 290 291 290 289 287 288 289 286 288 292 294 297 297 296 295 295 289 283 284 286 287 286 287 287 285 287 290 287 288 287 286 289 289 288 287 285 284 288 279 281 286 286 285 288 289 289 289 288 288 289 290 292 292 292 293 293 293 294 294
287 292 295 295 289 285 286 289 293 290 291 291 287 291 288 287 289 287 294 295 295 294 290 291 292 294 293 292 291 287 288 288 288 286 288 287 287 289 291 291 293 295 294 294 294 292 286 284 286 285 285 287 287 286 288 289 289 289 288 288 287 289 288 286 287 289 287 284 283 287 287 286 289 290 291 291 292 294 294 293 293 293 293 291 293 295 296 295
294 293 293 299 291 292 291 294 294 291 290 290 289 289 286 287 287 290 291 292 292 292 294 287 290 293 292 292 292 288 290 287 286 287 285 286 287 285 284 289 291 290 292 290 292 289 289 285 287 287 286 287 287 286 288 288 286 286 287 288 289 288 288 289 289 290 289 286 289 289 287 287 291 289 290 292 292 292 292 292 292 293 294 294 293 293 294 294
290 290 288 296 294 291 292 294 294 292 287 290 286 286 288 287 287 290 292 292 288 291 295 291 292 292 293 292 292 290 291 293 293 289 290 292 287 286 289 288 285 287 288 290 291 291 290 286 292 286 285 285 287 287 286 287 286 285 286 287 288 288 289 290 290 290 289 288 289 289 288 288 294 293 291 294 294 293 293 293 295 295 295 294 294 294 294 295
295 295 296 291 289 291 292 292 292 290 286 288 286 288 289 289 288 291 291 295 293 291 293 291 293 292 292 292 291 291 294 294 294 294 294 296 291 291 291 289 292 289 288 289 289 289 290 284 285 285 284 285 288 286 283 283 286 287 287 287 287 286 284 286 286 289 287 287 288 288 287 288 293 293 295 292 293 294 294 294 294 295 294 294 295 295 293 293
296 297 298 294 286 293 289 290 291 290 285 288 288 289 289 289 291 292 289 294 295 296 295 295 294 293 291 291 290 293 296 296 296 296 296 296 297 295 295 293 293 292 289 290 288 288 288 287 286 284 284 284 288 285 283 285 286 285 286 289 290 287 287 289 290 291 291 291 287 285 287 293 294 291 291 292 291 291 293 295 294 293 292 292 292 293 294 293
Wind_Speed
11 9 9 9 9 8 7 6 5 4 3 2 1 1 1 2 3 4 4 5 4 4 5 5 6 6 7 7 9 9 7 2 2 1 1 1 0 1 2 5 4 4 3 1 1 2 1 3 1 2 1 1 1 1 1 1 0 2 1 3 1 2 1 1 2 3 3 7 5 5 4 7 3 0 0 1 4 2 2 4 1 7 7 4 4 7 10 10
11 10 9 10 9 8 7 6 4 4 3 1 0 1 2 3 4 5 4 5 5 5 5 6 6 7 8 8 8 8 4 2 2 2 3 1 3 3 3 4 3 3 2 1 1 1 1 2 2 1 1 0 1 1 0 1 1 2 1 3 1 1 1 2 1 3 6 4 7 7 4 7 5 7 2 3 1 2 2 1 3 5 4 6 7 8 9 9
11 11 10 10 9 9 7 6 4 4 3 1 1 1 2 3 4 4 5 5 5 6 6 6 7 8 9 9 8 7 1 2 1 3 1 2 2 4 4 4 2 1 1 1 0 1 1 3 3 1 1 1 1 1 1 0 1 1 3 1 1 2 1 3 3 1 1 9 6 6 4 1 2 4 1 2 4 3 5 4 0 4 3 6 6 6 8 8
11 11 10 10 9 9 8 6 4 4 3 2 1 2 2 3 4 4 5 5 5 6 7 7 8 8 8 9 8 3 1 3 1 1 1 2 3 5 4 3 1 0 1 1 2 1 2 2 1 3 0 1 1 2 2 1 2 1 4 2 2 2 2 3 3 4 1 9 6 5 2 4 3 3 3 3 3 3 5 6 9 10 9 11 9 9 8 9
12 11 9 10 10 9 8 6 4 4 3 3 2 2 3 3 4 4 5 5 6 6 7 7 8 8 8 8 8 1 2 2 1 0 1 3 5 6 4 3 1 0 2 1 3 3 3 2 2 1 1 1 0 1 1 1 1 3 1 2 1 0 3 2 3 3 1 5 8 3 6 4 1 3 2 5 4 4 8 8 9 10 10 13 12 10 7 9
11 12 11 10 9 8 7 5 5 4 3 4 3 2 3 4 4 5 5 5 6 6 7 7 8 9 8 7 2 2 2 3 0 0 3 5 6 5 4 3 2 0 1 1 1 2 1 2 1 0 0 2 3 3 1 2 0 2 0 1 3 1 4 1 2 6 2 4 5 4 1 3 2 2 2 5 6 2 3 4 7 8 11 16 12 12 10 9
12 12 11 10 9 8 7 6 5 4 4 4 4 3 3 5 5 5 5 5 6 6 7 7 8 9 11 3 0 1 2 1 0 2 3 5 5 4 4 2 1 0 1 1 1 0 1 1 1 1 1 0 1 2 1 1 2 6 2 1 3 3 3 1 1 4 5 9 2 1 1 2 2 1 0 2 4 6 5 3 5 4 6 11 13 13 15 15
13 12 10 8 9 9 7 6 5 5 4 4 4 4 5 5 6 6 5 6 6 6 7 7 8 8 8 1 1 1 1 3 2 3 6 3 4 4 3 0 1 0 1 2 1 0 1 1 3 1 0 3 3 5 0 5 3 2 1 0 1 3 0 0 1 2 4 3 0 5 2 0 3 2 0 4 7 4 4 3 6 7 10 9 11 12 11 10
13 12 11 8 6 4 6 6 5 5 5 4 3 4 5 6 6 6 6 6 6 6 6 7 7 8 1 1 2 3 3 1 3 4 2 3 5 4 1 1 1 1 1 0 1 2 3 1 1 2 3 1 1 6 1 5 1 0 3 4 1 1 1 1 2 2 3 1 3 2 0 1 2 1 2 8 6 6 4 5 6 8 9 10 11 13 12 11
13 12 10 9 7 4 7 4 3 3 5 3 3 4 5 6 6 6 7 6 6 5 6 6 7 7 1 2 2 1 1 2 4 3 2 2 5 4 6 0 2 1 0 0 3 4 2 2 1 2 3 3 2 2 0 4 2 1 5 5 6 4 3 0 2 0 0 1 1 2 0 2 2 2 6 3 8 4 5 5 5 9 9 9 8 9 10 12
14 13 12 11 10 9 6 6 6 6 5 3 4 5 5 5 6 6 7 7 6 5 5 5 6 4 1 1 4 5 1 2 1 4 4 3 4 5 0 3 1 1 4 3 3 1 1 2 2 1 2 1 3 2 2 1 1 6 6 5 4 2 1 0 2 1 1 1 1 3 1 1 2 1 8 7 2 5 8 5 6 6 7 8 9 9 9 10
14 14 14 13 11 11 9 7 7 8 5 3 4 5 5 5 5 6 7 6 6 4 4 4 4 0 1 2 4 2 1 3 3 3 3 0 2 5 5 4 0 0 2 2 1 1 1 0 0 1 2 1 1 1 1 1 3 5 6 3 1 2 1 1 4 3 1 0 0 1 2 4 0 4 11 6 2 3 7 7 6 7 6 7 7 7 7 11
14 14 14 13 12 11 9 7 7 7 7 3 5 5 4 4 5 6 6 6 4 4 4 4 4 1 1 1 2 3 3 2 4 5 3 1 0 1 1 0 0 1 3 6 3 2 2 2 2 6 1 3 3 1 2 2 0 3 2 5 2 1 2 6 0 1 3 0 1 2 1 7 7 11 12 2 3 1 5 6 6 6 6 6 6 7 8 7
13 13 13 13 12 11 10 8 7 7 6 5 7 5 4 4 6 6 6 6 7 5 4 3 1 0 1 2 1 3 3 3 4 2 1 2 1 1 2 2 2 2 2 5 2 2 0 1 4 5 2 4 2 1 3 1 2 3 1 3 3 2 2 2 2 3 4 1 0 2 2 8 8 9 8 5 6 6 6 6 6 6 6 6 6 7 8 9
14 13 13 13 12 11 9 8 7 8 6 7 6 6 5 6 7 8 8 7 8 6 3 2 1 1 1 1 2 2 3 0 2 0 1 2 3 2 1 2 3 3 1 3 1 1 1 1 3 3 1 1 3 3 2 1 1 1 4 2 2 3 3 2 1 6 4 1 1 5 1 8 9 10 5 1 4 5 6 6 6 6 6 7 6 7 8 9
14 13 13 13 13 11 9 6 9 6 7 6 6 6 6 7 7 8 8 8 8 7 2 0 0 1 2 1 1 4 1 1 2 1 1 1 0 2 3 2 1 2 2 0 1 1 2 6 5 2 2 3 4 6 4 3 1 2 4 1 1 1 2 1 1 1 6 2 0 4 5 3 4 3 3 3 2 5 6 6 7 8 9 9 7 7 7 7
14 13 13 13 13 11 9 8 7 7 7 6 7 6 7 9 10 9 9 7 4 1 2 1 1 1 2 1 1 0 2 2 3 1 2 0 1 1 3 1 1 0 3 2 5 3 4 4 2 1 2 4 3 6 6 2 2 3 0 3 2 4 1 1 3 1 1 4 2 1 2 6 6 7 4 3 2 3 5 7 8 9 9 9 8 8 8 8
15 14 13 12 13 12 10 9 8 8 6 6 6 4 5 7 7 7 5 4 2 2 2 3 1 2 3 1 2 4 2 3 1 2 1 2 1 2 2 1 0 2 1 2 3 2 2 2 2 4 1 1 2 2 6 4 7 4 2 1 3 1 5 4 3 2 4 0 3 1 5 9 12 10 7 8 4 6 9 9 10 11 10 10 7 7 8 9
15 13 12 12 12 12 10 9 10 8 8 7 6 7 9 10 3 2 1 1 2 2 1 3 4 5 4 9 2 5 3 3 3 2 1 1 1 1 1 1 4 2 1 2 2 2 1 3 5 5 3 3 4 7 7 1 6 4 7 5 3 2 1 1 3 1 4 1 4 4 7 8 10 11 10 8 8 9 11 8 9 10 10 9 8 6 7 9
15 14 13 13 11 11 11 11 10 9 9 3 2 1 1 3 1 2 0 0 2 2 2 6 3 2 4 5 5 0 0 1 4 3 1 1 0 1 1 1 2 3 2 2 1 1 1 4 4 5 7 7 4 6 7 4 7 4 4 4 2 2 1 2 0 0 1 0 5 8 7 7 9 10 11 9 7 7 9 10 12 11 11 11 8 7 9 11
14 15 15 13 12 11 12 12 10 9 8 2 1 1 4 6 8 2 1 2 4 2 4 2 1 3 1 4 3 6 7 1 1 1 0 1 2 3 1 2 3 1 1 3 5 1 4 4 4 6 6 7 8 4 4 4 4 4 5 3 1 1 1 2 2 0 2 1 3 1 3 10 12 10 10 9 7 13 14 12 11 13 12 10 8 9 11 12
14 16 15 13 12 12 12 11 11 8 4 2 2 4 1 1 1 1 4 1 4 1 2 2 1 3 2 4 3 2 3 3 2 1 1 0 0 4 1 3 2 5 0 4 4 3 3 5 5 7 5 3 4 6 4 4 4 3 4 3 2 1 1 2 2 0 0 1 7 5 5 12 15 12 8 9 13 13 12 9 11 11 12 10 9 10 9 6
16 16 15 13 13 13 12 12 10 9 2 3 4 2 1 0 0 1 1 5 2 0 1 1 3 2 1 4 2 1 3 3 5 3 3 1 2 1 4 3 4 2 1 3 6 4 2 5 9 3 3 5 3 5 6 5 5 4 3 2 3 2 1 3 2 1 1 2 4 5 8 12 14 12 13 13 11 11 9 8 11 10 13 15 12 8 7 8
15 15 13 13 13 14 13 12 9 6 4 4 2 5 1 1 2 2 0 3 3 3 1 2 2 2 3 4 3 3 4 2 5 6 3 4 7 3 4 4 5 3 6 4 8 8 6 2 1 2 3 4 3 2 5 3 0 2 3 3 1 0 0 2 0 2 1 1 1 5 7 8 6 7 7 5 3 9 11 7 10 13 11 9 5 4 7 9
15 14 13 12 13 13 12 11 5 3 3 2 5 5 4 0 1 1 1 1 1 0 1 2 2 2 3 2 1 4 2 1 1 2 4 6 5 4 3 2 3 4 5 5 5 3 3 2 0 3 2 4 5 2 1 6 0 1 2 4 3 3 2 1 2 4 8 3 1 2 7 5 4 5 7 10 4 2 3 6 13 16 12 6 7 10 7 6
15 15 13 13 13 12 13 6 4 3 4 4 4 3 5 3 1 1 1 3 2 2 2 7 1 4 4 1 1 2 2 1 1 3 5 3 1 2 1 1 2 6 5 4 6 3 4 1 2 5 4 4 4 2 2 4 4 1 2 0 3 5 4 3 3 4 2 1 1 2 1 9 4 6 4 6 5 7 5 5 12 11 8 6 8 9 8 8
14 15 15 15 13 14 7 5 4 6 3 5 5 1 3 3 1 1 3 5 4 4 7 1 2 2 2 3 5 3 5 5 0 3 3 2 2 1 5 3 2 1 2 2 3 3 2 2 5 4 5 3 4 1 2 6 6 1 1 0 4 4 3 2 4 4 4 2 4 1 5 5 8 8 10 14 7 6 7 10 12 7 6 7 7 7 7 8
17 15 15 15 17 15 2 2 9 6 2 1 0 5 3 3 2 1 3 3 4 4 3 2 2 2 1 3 4 5 2 8 3 2 0 2 1 2 2 5 7 7 2 5 8 2 2 3 3 3 2 4 6 3 0 5 4 2 0 5 4 6 3 4 2 0 1 3 8 4 1 2 6 7 3 3 2 6 11 13 10 7 7 7 6 7 6 3
19 18 16 14 18 21 3 3 0 3 1 1 0 3 3 3 2 7 4 3 0 2 2 6 4 2 2 3 2 1 2 3 3 1 2 2 3 2 2 4 4 5 2 5 7 1 2 4 4 6 5 4 3 0 1 6 4 2 2 4 5 5 4 3 2 3 4 2 7 3 3 2 15 3 4 1 2 7 12 12 9 10 7 7 7 3 1 2
17 19 18 16 13 9 5 0 2 2 2 1 0 2 3 1 4 3 3 7 3 3 1 1 3 7 4 10 1 1 4 1 2 1 1 3 2 3 1 1 3 3 1 7 6 4 1 1 4 3 4 4 5 0 1 1 2 5 5 6 5 7 3 2 6 2 4 4 4 7 7 2 9 1 7 8 8 10 10 4 6 5 5 4 1 4 5 5
17 17 19 17 7 3 3 1 4 3 0 2 1 2 3 4 4 4 6 6 3 1 2 1 3 5 12 15 9 2 5 1 1 5 3 1 1 3 1 3 5 6 5 5 3 3 2 1 1 1 2 3 3 5 6 2 4 5 2 3 4 2 5 3 3 5 1 7 5 5 7 5 6 6 4 6 4 3 7 5 8 5 3 3 3 4 4 5
16 17 19 13 5 5 5 1 1 3 1 3 2 4 5 5 2 7 4 2 2 5 7 5 2 6 14 7 6 7 8 2 2 5 9 6 6 6 7 8 6 4 4 5 5 2 0 0 1 2 2 7 3 8 4 5 3 5 6 7 5 2 4 2 2 2 4 7 1 2 2 2 15 5 4 8 7 2 5 8 6 5 3 3 3 4 5 4
16 16 17 10 8 5 3 1 0 1 4 3 2 3 5 6 9 7 6 6 3 7 6 6 10 8 8 7 7 4 2 9 3 1 5 2 8 6 2 5 6 7 8 4 4 3 4 2 1 2 4 3 6 10 2 1 2 4 7 7 5 1 1 4 4 2 4 5 4 0 1 6 2 7 9 9 10 6 6 6 6 3 1 5 5 4 4 4
18 16 12 7 5 6 5 3 2 3 3 2 4 5 2 6 7 10 9 5 2 1 6 4 7 6 12 13 8 8 3 2 8 4 5 5 5 7 7 6 3 0 6 3 8 7 2 3 6 4 3 4 5 8 13 9 10 9 4 10 9 8 5 4 3 5 8 6 2 4 2 7 2 4 2 6 6 5 5 5 5 3 5 1 4 3 3 4
17 14 9 7 4 3 5 4 4 4 3 4 5 7 11 10 7 14 12 6 1 2 3 5 13 12 7 1 2 6 5 3 5 7 6 9 8 6 9 9 5 3 3 8 3 2 9 5 5 7 1 8 10 2 4 6 3 2 3 5 4 8 5 3 5 3 1 1 2 1 6 5 5 3 6 3 4 4 6 7 7 8 7 3 4 5 6 6
14 8 9 6 7 5 5 4 4 4 4 5 7 7 12 11 10 6 6 5 1 5 6 8 4 6 5 4 1 10 2 5 6 5 3 6 4 10 7 6 11 13 7 9 4 2 2 4 1 3 5 6 5 1 4 4 5 4 5 6 6 4 5 2 2 0 2 4 10 3 8 7 8 7 8 8 3 5 5 7 7 8 10 6 5 5 6 6
5 7 9 6 9 6 6 5 5 5 3 4 8 11 10 6 2 3 3 9 5 14 9 11 6 7 8 8 6 10 3 5 5 6 6 3 3 6 5 6 5 8 11 9 2 4 9 5 2 3 4 1 0 0 1 3 3 7 3 8 2 2 4 4 5 2 1 5 8 3 11 5 2 11 4 2 7 11 9 11 13 9 8 6 5 5 6 6
3 2 2 8 10 10 8 7 7 4 4 5 10 10 5 8 4 1 2 7 6 6 6 8 2 8 6 7 6 9 4 9 8 5 4 8 5 6 7 3 7 14 13 3 7 3 6 0 1 1 0 6 2 1 1 1 1 4 5 2 7 3 2 2 4 4 1 2 5 5 3 7 9 10 3 6 3 8 13 13 8 9 7 8 7 6 4 4
1 1 3 7 10 12 9 9 5 8 5 7 10 12 5 10 4 5 4 9 6 5 8 5 6 4 6 8 3 3 7 9 9 8 7 4 6 5 15 9 5 11 11 9 6 2 1 5 2 1 2 1 1 4 9 4 2 0 1 1 1 3 2 5 7 4 6 5 1 8 3 11 5 6 8 11 12 12 11 6 9 10 8 8 7 6 5 3
3 1 4 4 13 12 11 10 5 4 6 14 14 11 4 5 2 1 5 9 4 7 3 6 2 6 5 6 10 9 5 5 11 7 6 4 8 2 9 11 7 9 13 12 6 3 3 2 6 1 3 1 3 5 9 10 9 3 2 3 1 0 2 4 0 4 4 3 4 3 8 6 5 7 8 9 9 9 8 11 8 8 8 8 7 5 5 5
0 3 2 8 13 13 12 10 9 10 10 8 7 6 1 2 3 6 7 7 3 2 3 5 6 8 6 5 4 4 5 7 8 8 6 4 10 4 7 9 6 6 6 6 7 3 2 2 7 2 1 5 8 3 7 12 15 13 14 12 13 9 4 4 8 1 1 3 5 2 11 10 6 3 5 2 7 5 6 7 7 6 7 6 4 5 6 5
3 5 3 10 14 16 15 11 1 4 5 11 13 5 3 2 1 2 6 4 1 3 1 4 5 6 8 8 9 9 6 5 6 6 4 9 10 7 3 11 9 13 13 10 14 6 6 3 9 6 9 8 3 3 1 5 1 1 3 5 5 2 4 5 6 4 1 4 3 4 1 19 2 1 2 4 5 6 7 5 4 5 6 6 6 6 5 4
1 3 1 14 16 16 10 4 1 3 8 5 5 3 2 1 1 2 2 3 4 2 2 4 5 5 4 5 4 6 12 5 10 9 6 9 6 12 4 13 11 13 11 1 2 1 6 3 3 1 1 1 1 2 3 4 2 0 1 2 5 5 6 6 5 6 7 2 3 3 2 13 1 0 1 1 2 1 1 3 4 3 2 4 5 2 1 1
1 1 1 3 15 14 10 5 6 10 10 1 1 1 3 1 1 2 2 2 3 4 5 2 2 6 3 4 5 7 9 3 6 9 5 4 5 7 7 9 15 7 11 8 11 8 5 4 8 3 1 1 3 2 2 3 2 1 2 4 6 6 5 4 3 2 3 8 8 7 11 13 2 6 3 3 3 3 1 2 4 2 2 1 2 2 2 3
1 1 2 1 4 9 13 6 6 8 8 6 3 10 5 1 3 4 1 3 3 2 3 5 5 5 3 4 6 6 10 11 3 11 6 4 6 1 5 12 14 11 8 8 7 10 7 6 9 7 11 9 5 6 8 5 9 4 3 6 7 10 8 5 6 5 7 9 9 6 12 12 2 3 1 3 2 2 3 6 5 5 5 5 2 4 4 3
3 3 2 2 3 1 2 5 7 7 9 7 4 10 8 6 2 2 5 3 1 2 1 1 0 4 5 7 5 6 9 10 9 4 9 4 3 1 3 10 13 8 9 12 8 9 3 3 9 12 13 13 12 7 2 7 4 4 7 10 8 9 13 12 5 6 14 11 3 10 17 17 11 3 0 3 2 2 3 3 2 3 4 4 3 4 4 5
1 4 3 3 1 6 3 4 8 8 9 11 8 7 13 16 5 2 5 1 0 1 1 0 1 8 4 8 9 7 10 10 5 5 10 10 3 2 2 7 10 9 10 6 8 5 3 4 10 12 13 13 12 7 10 16 13 14 14 11 14 13 14 16 13 16 13 3 13 12 10 9 21 10 8 8 6 5 6 6 6 5 5 4 5 5 6 6
3 2 2 3 3 3 7 6 9 12 5 10 5 5 13 17 12 6 1 4 1 2 1 1 1 5 8 13 6 6 6 7 9 8 3 3 4 1 3 2 5 1 4 3 7 6 6 6 6 7 10 11 8 6 10 10 12 13 15 14 15 16 14 18 20 21 11 11 17 18 11 15 20 10 12 13 9 11 9 8 6 5 3 4 6 8 8 8
2 2 1 2 2 3 6 4 12 11 11 14 5 7 9 14 18 15 7 5 2 2 3 5 8 10 7 4 7 5 8 8 8 6 5 4 7 4 2 1 2 4 2 3 5 2 4 5 6 9 11 11 12 9 7 12 5 3 9 14 17 19 22 23 22 19 16 12 15 20 11 14 19 5 11 11 9 6 4 3 1 2 5 6 6 8 8 8
6 4 3 1 1 1 3 6 6 11 11 15 9 10 9 14 18 15 7 4 3 6 3 7 6 5 5 5 5 10 8 8 8 10 4 8 5 4 8 7 5 1 1 6 5 2 6 6 10 4 5 8 13 11 5 7 6 6 7 10 15 18 21 23 20 16 13 12 12 12 13 16 16 4 4 9 5 1 2 5 6 7 6 5 6 7 7 7
2 2 2 1 2 3 2 3 6 9 6 7 10 6 5 10 14 13 12 11 14 10 8 14 13 5 1 1 2 4 2 3 4 7 8 13 13 8 8 5 7 8 5 2 1 1 5 4 2 4 6 9 9 9 5 4 5 7 9 13 17 17 12 6 9 9 9 14 15 13 15 20 11 8 8 4 3 6 7 6 5 6 6 6 8 7 4 5
3 4 1 2 3 3 5 3 4 7 7 7 9 7 7 13 4 8 4 6 11 12 8 14 11 7 6 4 7 6 2 4 7 6 7 7 6 5 3 2 6 12 9 8 2 6 6 5 4 4 9 12 14 4 6 6 3 9 16 23 19 4 7 8 11 13 16 15 13 13 19 17 11 5 5 5 3 5 7 7 4 2 4 5 4 5 4 5
Wind_Direction
170 198 190 186 177 172 175 173 172 163 170 181 144 53 48 17 19 21 20 13 5 357 346 342 346 347 349 354 354 356 349 81 37 49 75 257 68 349 250 269 289 309 360 40 26 40 344 345 330 289 37 60 267 84 259 38 130 60 83 120 346 202 47 268 225 192 172 128 195 180 186 114 133 304 205 72 36 90 66 99 47 36 44 60 92 105 126 139
169 185 198 188 181 172 178 190 181 177 171 156 154 41 24 13 8 13 11 3 358 355 347 346 346 354 355 353 355 359 27 66 40 338 233 163 252 247 244 255 273 341 302 54 93 71 36 317 279 154 96 271 332 122 39 273 79 108 145 89 204 206 284 330 275 144 114 186 169 186 173 138 199 144 217 123 228 125 107 130 77 69 45 65 88 121 134 144
168 176 197 192 186 173 176 189 191 184 171 187 260 340 358 3 2 5 6 359 355 350 351 347 356 355 358 352 344 354 26 55 37 265 200 212 227 237 239 243 269 126 90 132 198 130 183 235 281 157 101 121 322 181 51 253 80 218 110 82 240 193 189 17 355 329 207 143 148 177 202 134 201 136 135 177 181 132 169 160 6 148 177 172 156 148 151 158
168 172 196 196 188 180 175 188 195 205 193 212 260 317 348 354 352 353 358 356 352 351 349 352 355 358 353 347 346 331 70 75 248 235 256 203 248 243 239 257 241 94 110 177 189 239 256 318 269 157 73 122 259 81 110 256 88 257 76 166 194 214 148 313 350 328 32 138 155 155 105 103 173 161 142 174 99 248 244 205 171 202 185 184 176 165 166 168
169 167 191 203 194 186 178 189 202 209 202 238 252 303 320 334 338 341 345 354 346 351 349 352 356 354 347 346 345 39 75 56 268 152 201 219 241 244 251 255 253 135 164 272 345 265 251 270 23 90 103 256 33 50 248 240 147 82 160 167 206 63 62 266 293 347 15 139 114 128 116 166 144 106 160 137 165 217 211 226 211 200 175 161 175 181 171 178
171 166 181 202 202 195 188 193 208 211 233 245 242 288 320 323 330 328 338 341 346 344 350 355 353 349 343 336 35 68 87 151 235 244 195 222 240 231 248 258 222 114 75 27 154 312 21 327 88 44 271 103 195 133 257 155 151 85 327 42 9 193 135 268 4 337 60 98 103 116 186 114 125 178 226 147 182 226 212 170 187 211 173 178 161 153 174 182
166 169 176 196 202 197 195 198 203 217 239 248 261 287 322 319 317 322 329 336 338 343 350 352 353 349 337 329 121 84 142 246 6 244 206 234 242 230 247 252 90 60 99 46 347 110 156 253 98 223 113 117 266 123 190 115 49 104 181 117 16 72 110 210 118 0 56 93 103 198 79 122 138 150 284 211 234 207 192 216 142 141 125 130 149 175 178 187
165 165 165 188 200 202 198 203 205 217 236 247 258 292 308 315 310 318 324 330 332 339 347 352 349 352 351 84 64 27 64 254 227 242 237 249 296 277 199 176 140 86 108 183 164 181 137 182 214 186 147 164 210 125 283 73 26 97 77 167 173 62 245 31 78 37 52 68 107 66 109 228 166 184 34 245 228 227 195 169 112 115 130 149 157 179 190 191
168 164 161 170 198 173 198 207 214 216 225 240 269 280 300 310 312 311 321 321 326 334 344 350 348 347 279 96 122 94 247 231 213 287 306 345 302 331 41 30 135 151 237 175 183 180 127 275 219 176 235 144 97 87 341 111 338 139 171 132 110 120 167 178 57 33 75 41 56 72 310 313 223 176 245 235 245 210 171 124 132 131 141 165 179 185 186 193
168 160 150 150 158 172 209 193 343 274 222 228 266 280 296 300 306 310 313 320 322 328 338 348 350 338 34 89 66 196 261 252 295 289 299 279 321 43 70 15 50 36 124 304 66 61 118 207 157 247 146 87 92 84 156 84 199 134 117 124 135 182 125 252 116 222 331 95 51 117 326 310 302 120 281 289 242 170 145 155 163 147 168 184 186 193 196 191
163 150 142 144 150 179 212 235 231 255 230 233 281 299 286 295 301 308 313 316 318 314 335 345 348 357 108 104 119 213 173 38 266 325 294 282 39 68 346 315 356 84 98 39 102 162 175 202 189 233 46 217 81 347 83 201 139 105 121 88 101 170 144 117 101 201 79 351 94 104 265 280 325 80 237 243 271 166 176 174 179 174 186 191 196 193 201 203
164 156 156 158 168 176 195 214 230 239 242 264 294 282 289 290 305 308 307 311 304 312 320 333 345 6 81 85 157 214 209 252 291 295 312 249 123 172 216 226 113 167 145 149 238 241 170 185 51 86 188 99 68 94 47 140 90 144 107 89 232 56 89 223 153 217 96 270 131 155 36 316 193 229 238 246 267 135 172 184 190 198 204 206 205 203 201 210
165 162 163 163 167 175 186 201 221 231 242 261 270 267 278 288 298 303 307 301 304 302 307 328 338 210 109 130 243 253 272 312 318 329 323 72 101 217 211 233 217 90 176 134 177 224 211 160 108 80 194 100 162 125 200 87 271 94 58 129 53 17 332 252 311 102 100 259 134 135 307 268 257 247 269 254 201 117 151 191 206 213 214 214 210 211 218 225
164 164 164 163 167 174 187 202 212 229 242 260 250 258 270 298 299 299 295 285 283 288 293 309 34 110 105 239 293 254 299 10 327 352 297 308 83 357 22 12 33 70 62 108 171 195 207 168 110 124 106 89 140 260 87 5 41 138 206 67 144 76 260 295 167 174 129 315 172 78 196 283 281 273 276 247 170 160 196 214 220 225 225 226 223 218 220 225
168 167 167 165 170 175 183 194 207 224 234 243 251 252 273 290 298 295 288 283 272 257 303 305 213 107 82 261 284 263 302 98 15 247 260 55 124 47 8 5 49 44 100 132 158 214 224 69 70 43 66 264 89 85 38 47 355 102 60 294 320 138 275 297 356 161 156 270 114 87 309 242 267 282 303 264 150 160 198 227 243 239 237 233 227 223 224 226
170 171 168 169 172 175 168 181 213 216 222 233 251 267 277 277 282 284 285 276 278 275 263 319 226 135 109 291 225 316 16 117 202 239 268 116 90 145 192 120 352 358 23 325 57 351 56 85 77 174 110 23 64 93 77 46 331 5 119 261 261 99 211 350 279 192 161 122 338 167 218 321 305 268 295 320 161 171 200 232 240 241 243 239 230 222 222 233
166 172 172 173 175 173 159 196 202 217 223 228 250 267 271 271 273 278 277 275 285 171 178 163 148 177 160 272 316 90 212 228 302 340 358 82 109 179 100 35 28 345 6 356 11 50 357 63 290 39 47 134 162 97 81 21 329 288 30 193 211 157 181 249 296 273 124 116 212 277 201 240 250 275 299 300 242 219 219 237 239 239 237 234 228 223 221 222
168 175 177 176 171 158 167 184 201 212 214 230 244 268 276 286 299 317 266 242 257 212 230 229 159 99 266 28 169 216 140 116 77 219 193 260 110 58 108 83 357 74 44 30 352 68 339 57 40 176 10 12 77 72 112 204 190 204 207 205 301 287 164 197 150 238 137 48 178 228 224 261 264 274 278 263 247 210 224 223 232 237 239 242 229 221 223 224
168 170 174 170 169 161 165 190 198 198 211 223 245 268 278 280 270 173 261 113 112 80 147 198 132 148 212 202 194 84 91 167 153 72 212 18 315 112 87 90 87 93 60 71 284 93 8 55 26 50 155 220 210 150 164 199 157 177 170 171 157 146 268 165 244 304 135 154 235 226 231 241 258 271 270 273 258 239 241 235 253 255 251 248 237 224 220 226
161 164 170 176 170 172 170 191 191 199 203 203 242 304 64 74 44 66 312 340 240 177 222 181 150 117 59 56 126 191 151 24 108 323 219 301 84 44 33 93 23 53 90 142 156 58 101 99 162 183 209 208 223 179 179 196 148 117 90 105 155 155 299 314 326 270 117 57 234 232 250 256 261 257 263 256 258 258 254 251 247 249 248 246 242 234 232 230
166 171 177 172 171 169 174 185 191 203 201 175 245 172 151 179 114 220 187 250 221 260 62 38 146 158 178 146 138 143 119 347 61 198 233 264 96 95 186 57 32 68 321 182 134 297 66 89 245 217 200 197 214 177 129 68 61 121 109 75 346 62 294 264 207 310 354 121 290 269 278 271 258 250 251 260 264 256 247 242 242 247 250 248 237 236 232 235
167 171 172 170 167 171 178 182 192 190 176 200 203 182 296 167 174 215 125 149 280 193 128 180 55 48 34 104 195 159 77 96 26 337 287 141 304 113 250 101 134 157 193 93 44 27 55 165 241 224 208 113 89 97 96 116 96 49 117 131 67 306 191 345 19 26 318 81 261 291 301 280 279 274 249 232 234 242 241 233 243 241 252 249 236 232 241 256
166 172 170 169 168 171 171 188 188 179 128 202 199 201 228 235 217 237 113 111 168 287 140 100 74 119 43 328 261 180 106 145 176 235 226 98 81 172 147 102 149 154 87 105 129 97 75 292 242 241 132 82 38 71 78 61 67 105 65 67 191 248 61 290 301 335 266 170 279 316 315 283 280 272 264 248 230 248 249 242 247 234 245 248 242 227 226 237
167 163 165 169 172 174 176 180 178 177 217 224 274 211 155 166 59 53 100 150 182 248 151 210 147 153 180 146 206 130 136 208 109 202 265 127 147 184 114 152 157 107 185 157 139 147 185 234 288 108 85 121 122 59 88 70 114 338 128 125 195 255 113 161 230 278 314 344 35 324 295 297 283 295 311 301 252 227 247 251 262 260 243 257 295 277 215 225
161 158 159 163 173 168 176 160 170 204 144 301 265 253 273 56 77 125 117 13 22 289 336 336 119 221 188 29 97 142 236 59 348 172 178 144 157 92 205 190 106 189 182 187 113 122 283 275 49 79 70 71 99 75 133 121 56 333 246 178 189 163 120 14 359 41 16 342 324 67 345 309 284 273 257 275 339 276 255 211 245 248 254 260 264 258 253 249
162 159 156 162 164 165 152 158 216 165 157 204 215 237 210 163 103 126 98 85 250 242 49 209 118 226 128 194 65 185 82 130 222 251 127 208 171 146 111 173 129 200 200 151 171 175 197 13 116 163 117 86 80 126 226 119 167 90 259 188 169 128 100 72 18 57 354 234 279 84 77 274 309 281 282 283 264 268 303 224 243 247 254 256 247 251 252 242
168 155 158 159 166 153 139 235 155 145 128 262 239 191 152 119 82 80 74 12 326 194 157 267 109 241 61 197 143 111 136 234 310 36 85 323 144 337 140 217 73 36 168 144 52 239 74 54 76 67 86 92 101 101 243 138 113 226 248 207 99 83 84 120 99 115 226 248 301 337 156 252 291 267 231 237 249 279 279 266 255 258 256 249 243 246 247 241
161 158 159 164 165 175 230 124 135 168 204 273 344 142 114 127 92 91 81 109 262 140 153 238 222 343 58 186 143 148 217 154 99 238 353 291 99 6 95 197 161 181 191 88 183 268 143 158 138 119 82 93 168 204 244 127 125 210 236 147 106 126 143 115 92 146 229 22 292 335 107 296 256 264 293 221 225 256 256 252 260 271 263 252 252 249 253 271
161 159 161 167 169 200 129 63 80 172 260 255 199 119 117 89 101 109 127 157 136 92 301 117 269 107 84 113 99 102 103 349 146 224 310 53 36 142 114 221 160 175 66 140 184 232 354 163 210 147 131 187 227 270 250 157 93 251 169 75 75 68 68 96 94 64 333 41 270 208 186 209 282 185 216 31 187 237 241 247 255 257 259 273 274 250 106 92
165 158 162 169 181 212 269 193 207 255 273 352 20 82 71 81 107 166 121 237 130 227 103 212 153 189 144 151 162 194 120 347 61 100 48 148 308 26 71 161 121 132 115 28 77 192 249 332 157 104 181 188 146 107 96 96 138 123 73 63 22 37 35 17 64 84 45 285 254 203 205 159 291 317 190 141 201 204 230 266 273 283 293 277 299 167 141 124
169 165 161 167 184 173 139 225 247 219 297 13 73 92 87 41 144 111 187 225 54 113 52 146 174 129 151 164 169 245 82 112 96 136 111 23 23 32 80 37 38 52 51 29 40 334 8 357 105 294 50 113 95 73 4 50 87 108 104 117 49 342 11 30 349 35 120 264 261 234 204 158 216 293 299 245 277 251 175 204 239 260 284 257 190 184 157 147
171 171 164 162 165 135 173 198 256 164 110 63 83 114 113 126 340 184 204 77 158 200 166 186 248 162 177 159 120 161 148 70 181 153 151 168 156 153 213 160 153 95 208 182 202 338 359 234 265 22 256 135 103 86 346 12 2 79 87 63 122 253 33 320 22 298 201 223 249 306 221 5 244 232 275 287 279 279 205 194 213 212 202 249 223 190 176 172
173 170 168 170 151 148 219 208 44 126 87 44 101 97 105 115 194 220 252 163 252 152 227 138 167 165 155 132 178 151 127 156 197 184 114 169 152 228 234 178 190 136 189 208 128 100 270 298 30 272 359 241 137 130 177 47 256 118 141 139 107 151 153 243 266 235 304 295 262 15 84 254 271 291 224 240 257 225 206 209 207 178 221 218 209 202 197 195
173 168 168 186 170 173 177 141 93 86 87 52 108 114 62 173 213 209 212 199 191 39 125 131 128 131 155 176 193 157 120 318 150 190 142 152 152 190 246 266 197 251 80 139 164 181 124 311 262 143 248 183 184 181 177 170 166 204 124 155 180 153 165 205 182 198 222 219 290 284 87 233 113 241 263 250 277 290 247 245 255 282 242 206 187 169 179 208
173 169 169 170 199 219 168 154 136 93 88 103 129 170 170 201 207 195 207 206 245 86 86 135 136 150 198 166 133 185 139 176 187 134 171 147 203 187 184 209 226 129 144 130 245 88 207 205 259 196 268 156 183 214 119 93 58 247 168 85 95 224 132 174 202 157 227 342 343 230 214 189 178 261 297 245 298 315 296 289 305 293 278 171 130 164 187 213
166 181 164 178 186 185 158 156 119 86 99 137 147 183 200 187 200 179 218 133 167 122 122 97 89 138 168 156 210 187 260 118 209 133 214 199 187 184 199 186 193 193 162 184 166 168 72 256 326 335 42 175 183 121 180 148 196 224 119 207 206 174 108 92 9 271 100 38 258 163 293 273 299 294 247 262 306 284 298 297 297 267 260 249 213 189 208 216
192 153 189 161 181 164 150 140 127 106 91 154 169 204 205 233 211 92 158 169 172 132 134 135 219 150 174 192 179 187 218 81 185 142 211 152 297 204 199 233 180 186 205 140 247 189 152 233 337 80 200 311 196 139 68 20 151 105 190 238 227 100 123 139 215 341 108 206 267 128 234 289 30 287 331 82 258 270 280 264 251 251 264 275 242 206 221 213
152 202 220 182 175 151 143 137 117 108 96 157 203 218 207 230 186 131 134 114 127 141 142 147 212 113 186 150 205 177 208 160 197 185 193 177 245 186 168 189 202 194 198 199 165 242 122 147 274 325 145 279 333 132 321 335 61 147 188 209 120 252 242 294 93 246 171 267 268 280 247 258 188 245 311 306 247 250 245 247 257 263 269 258 257 248 241 266
122 121 226 187 150 148 147 128 118 133 126 175 211 220 213 225 176 187 184 142 152 128 156 225 125 221 147 191 138 133 165 178 176 192 150 229 208 205 184 172 209 201 193 168 188 216 119 175 279 333 122 311 20 115 202 183 333 35 62 115 170 102 172 144 199 173 129 244 59 285 97 261 174 217 185 227 232 237 250 253 246 239 243 250 255 261 255 244
149 71 280 128 150 144 137 127 126 131 154 197 204 227 182 224 166 283 181 145 192 156 215 176 204 141 168 192 156 164 218 166 164 199 186 192 200 273 185 189 185 193 183 182 190 146 204 169 230 269 300 76 187 199 209 157 166 200 141 227 197 20 230 119 181 148 164 177 183 256 300 259 255 202 185 213 233 227 215 232 237 239 230 234 245 244 248 238
135 137 241 147 151 143 142 142 151 175 196 232 249 238 276 236 157 218 229 215 145 199 148 156 160 165 164 135 200 181 161 162 178 182 186 210 185 224 213 187 140 160 142 168 193 190 150 181 180 141 25 227 241 248 196 183 184 178 177 197 182 138 159 150 259 27 115 126 235 155 260 274 245 203 184 205 258 227 224 216 237 245 250 244 260 251 219 224
214 195 204 163 150 154 153 168 189 170 183 211 212 194 216 50 40 269 232 231 181 187 42 135 189 154 159 183 163 176 144 173 185 179 225 192 216 213 237 172 163 150 152 176 197 204 158 138 112 185 205 205 218 298 283 201 270 191 159 238 164 168 107 150 200 263 348 240 146 184 81 267 106 324 344 249 192 208 202 186 233 253 250 255 242 241 227 203
229 222 327 164 160 159 171 113 9 210 197 215 28 28 355 338 170 280 232 197 213 117 162 188 192 165 224 156 177 156 161 190 173 200 198 215 234 203 226 171 151 161 152 156 92 240 99 94 101 300 330 337 339 322 21 36 105 293 312 110 137 191 174 175 170 186 170 253 240 246 213 266 324 324 315 329 285 168 55 134 158 200 284 265 268 280 295 264
188 247 297 211 171 155 179 155 168 190 216 278 95 213 49 207 26 324 240 269 197 180 184 175 190 180 174 162 139 175 177 171 220 192 233 210 242 222 180 175 156 165 157 199 174 196 159 253 146 138 30 345 350 341 360 336 45 161 184 208 186 186 177 185 97 104 228 214 197 157 237 255 308 339 333 2 1 323 252 243 177 150 210 255 286 269 268 284
228 180 273 207 217 170 188 165 164 182 207 214 186 225 239 248 197 194 66 291 339 300 177 213 182 164 175 141 169 165 189 191 155 218 199 187 216 340 189 177 181 175 199 186 180 167 165 173 143 167 193 196 218 203 210 215 196 214 230 204 193 167 176 125 230 201 223 237 181 203 251 254 267 355 5 343 350 320 312 337 354 33 6 333 301 250 257 269
157 219 188 261 211 87 256 123 162 167 186 177 187 230 218 241 289 272 166 278 203 290 298 260 325 142 173 157 168 183 196 217 190 181 190 212 227 314 210 183 186 188 201 147 153 149 172 191 180 186 193 207 212 209 216 103 81 168 226 181 197 195 186 192 171 197 217 227 156 224 233 259 257 242 329 278 334 262 289 316 295 319 297 267 279 313 301 272
318 217 152 193 99 252 265 147 170 171 196 174 195 171 204 221 211 350 171 257 259 171 314 8 208 176 226 172 184 196 198 202 216 120 190 191 236 217 306 176 201 204 165 127 157 96 84 186 213 201 209 213 207 195 179 159 177 199 196 203 200 189 191 190 191 222 211 167 248 235 230 237 256 224 234 249 270 281 276 275 295 320 300 290 290 299 295 283
206 260 146 193 159 202 199 219 180 186 192 172 217 158 199 203 202 213 162 223 33 345 166 305 324 249 190 191 166 189 172 202 189 213 176 210 112 287 138 351 165 315 155 160 178 168 153 195 224 184 232 234 226 195 169 182 186 189 196 195 196 202 197 199 215 222 191 190 225 243 198 222 248 225 204 232 219 237 243 253 243 235 271 300 299 294 287 290
294 7 284 328 207 186 167 144 181 183 175 179 211 177 191 198 202 205 198 165 154 236 182 217 217 219 222 221 190 192 165 173 227 212 170 176 186 133 117 17 284 28 133 125 182 181 143 235 209 187 215 230 240 220 187 184 199 185 205 206 203 198 203 207 215 219 209 212 228 243 234 227 246 208 190 224 218 196 231 223 208 257 260 262 269 268 270 277
197 201 261 215 230 19 179 159 183 187 187 180 184 204 193 189 205 207 227 209 194 228 146 231 224 222 209 213 208 214 198 197 173 195 190 159 224 177 185 179 154 357 66 173 170 270 163 234 194 170 202 238 240 238 163 195 175 209 224 226 222 215 211 208 212 220 220 239 248 260 265 261 248 157 193 250 275 247 267 292 279 277 282 261 253 259 265 271
338 27 12 64 192 188 162 165 169 187 183 194 207 201 192 201 217 194 206 206 208 206 186 219 219 223 292 235 288 257 288 209 190 190 179 180 194 201 153 239 156 160 175 138 163 184 166 264 28 109 203 242 238 233 180 145 182 214 227 229 227 219 218 215 221 218 202 217 228 241 255 254 255 119 234 231 195 262 264 253 262 265 264 277 270 277 314 309
276 263 107 340 282 178 186 165 153 160 206 197 197 195 188 212 206 141 222 218 226 227 212 220 220 195 237 229 234 229 140 109 113 112 101 55 65 74 83 138 163 164 171 178 131 152 176 155 164 152 210 233 243 190 140 153 168 248 243 231 222 175 197 204 224 219 215 205 212 220 240 248 251 148 183 249 190 240 276 268 271 293 267 258 305 339 334 332